Regional Weather Roundup
Issued by NWS Cleveland, OH

Home | Current Version | Previous Version | Graphics & Text | Print | Product List | Glossary Off
Versions: 1 2 3 4 5 6 7 8 9 10 11 12 13 14 15 16 17 18 19 20 21 22 23 24 25 26 27 28 29 30 31 32 33 34 35 36 37 38 39 40 41 42 43 44 45 46 47 48 49 50

000
ASUS41 KCLE 272110
RWRCLE
OHIO REGIONAL WEATHER ROUNDUP
NATIONAL WEATHER SERVICE CLEVELAND, OH
500 PM EDT WED AUG 27 2014

NOTE: "FAIR" INDICATES FEW OR NO CLOUDS BELOW 12,000 FEET WITH NO
SIGNIFICANT WEATHER AND/OR OBSTRUCTIONS TO VISIBILITY.

OHZ001>008-015>018-024>027-034-035-043-044-272200-
   NORTHWEST OHIO

CITY           SKY/WX    TMP DP  RH WIND       PRES   REMARKS
DEFIANCE       MOSUNNY   84  64  50 N6        30.07F
FINDLAY        MOSUNNY   85  65  51 W8        30.05S
TOLEDO EXPRESS MOSUNNY   81  60  48 N6        30.07R
TOLEDO EXEC    MOSUNNY   79  64  60 NE8       30.07F
LIMA           SUNNY     82  69  64 N8        30.07S
$$

OHZ009>014-019>023-028>033-038-089-272200-
   NORTHEAST OHIO

CITY           SKY/WX    TMP DP  RH WIND       PRES   REMARKS
CLE-HOPKINS    MOSUNNY   74  62  66 N12       30.09F
CLE-LAKEFRONT  PTSUNNY   75  62  64 N8        30.06F
CUY CO. ARPT   PTSUNNY   73  63  68 N16       30.09S
LORAIN-ELYRIA  SUNNY     77  64  64 NE13      30.08F
ASHTABULA      MOSUNNY   72  60  66 N7        30.08F
AKRON-CANTON   MOSUNNY   82  67  60 N12       30.04F
WOOSTER        PTSUNNY   77  68  73 N15       30.07R
MANSFIELD      PTSUNNY   78  69  73 N13       30.08S
YOUNGSTOWN     PTSUNNY   77  65  66 NW14      30.06R
$$

OHZ042-051>053-060>062-070>072-077>081-272200-
  SOUTHWEST OHIO

CITY           SKY/WX    TMP DP  RH WIND       PRES   REMARKS
CINC-COVINGTON MOSUNNY   90  69  50 W10       30.03F HX  94
CINC-LUNKEN    PTSUNNY   91  71  51 W8        30.01F HX  97
HAMILTON       SUNNY     90  71  53 NW6       30.04F HX  96
DAYTON         PTSUNNY   87  72  60 N10       30.07S HX  93
WRIGHT-PAT AFB SUNNY     87  73  63 N7        30.04F HX  94
DAYTON GENERAL MOSUNNY   88  71  57 NW7       30.04F HX  94
WILMINGTON     SUNNY     87  72  60 NW8       30.04F HX  93
$$

OHZ036-037-039>041-045>050-054>059-063>069-073>076-082>088-272200-
  CENTRAL AND SOUTHEAST OHIO

CITY           SKY/WX    TMP DP  RH WIND       PRES   REMARKS
COLUMBUS       TSTM      81  71  71 NW5       30.03S
OSU AIRPORT    MOSUNNY   84  73  69 N6        30.04F THUNDER HX  90
BOLTON FIELD   TSTM      84  73  70 W10G16    30.04F HX  91
RICKENBACK AFB MOSUNNY   90  65  44 SW9       30.01F HX  92
NEWARK         SUNNY     83  70  64 NW8       30.02F
MARION         PTSUNNY   84  67  56 NW10      30.06S
LANCASTER      PTSUNNY   88  72  58 SW10      30.02F HX  94
ZANESVILLE     PTSUNNY   86  71  60 W8        30.02F HX  91
NEW PHILLY     MOSUNNY   83  71  67 NW9       30.02F
$$



USA.gov is the U.S. government's official web portal to all federal, state and local government web resources and services.